Location: ??????????
(44.2167°N, 135.5333°E)
Time: 14:21:26
(UTC+00:00)

Helios 1B rocket - Pass Details

Date: 15 June 2025
Orbit: 494 x 502 km, 98.2° (Epoch: 15 July)

Event Time Altitude Azimuth Distance (km) Brightness Sun altitude
Exits shadow 11:59:19 - 193° (SSW) 2,314 5.2 -11.0°
Reaches altitude 10° 12:00:55 10° 203° (SSW) 1,706 4.6 -11.2°
Maximum altitude 12:04:07 28° 263° (W) 979 4.0 -11.6°
Drops below altitude 10° 12:07:20 10° 324° (NW) 1,724 6.4 -11.9°
Sets 12:09:39 0° 336° (NNW) 2,615 7.5 -12.2°
